Regional Weather Roundup
Issued by NWS Little Rock, AR

Home | Current Version | Previous Version | Graphics & Text | Print | Product List | Glossary On
Versions: 1 2 3 4 5 6 7 8 9 10 11 12 13 14 15 16 17 18 19 20 21 22 23 24 25 26 27 28 29 30 31 32 33 34 35 36 37 38 39 40 41 42 43 44 45 46 47 48 49 50
000
ASUS44 KLZK 200005
RWRLZK

WEATHER ROUNDUP FOR ARKANSAS
NATIONAL WEATHER SERVICE LITTLE ROCK AR
600 PM CST FRI DEC 19 2014

NOTE: "FAIR" INDICATES FEW OR NO CLOUDS BELOW 12,000 FEET WITH NO
SIGNIFICANT WEATHER AND/OR OBSTRUCTIONS TO VISIBILITY.

ARZ001-003-010-029-200100-
NORTHWEST ARKANSAS

CITY           SKY/WX    TMP DP  RH WIND       PRES   REMARKS
FAYETTEVILLE   CLOUDY    41  41 100 CALM      30.18S FOG
6HR MIN TEMP:  40; 6HR MAX TEMP:  42; 6HR PCP:  0.01;

FORT SMITH     CLOUDY    43  39  86 E5        30.21S FOG
6HR MIN TEMP:  43; 6HR MAX TEMP:  44;

HARRISON       FOG       37  37 100 E6        30.19R VSB 1/4
6HR MIN TEMP:  37; 6HR MAX TEMP:  38; 6HR PCP:  0.01;

BENTONVILLE    CLOUDY    41  37  87 CALM      30.19R
6HR MIN TEMP:  41; 6HR MAX TEMP:  43;

ROGERS         LGT RAIN  40  39  97 E3        30.19R
6HR MIN TEMP:  40; 6HR MAX TEMP:  40; 6HR PCP: TRACE;

SILOAM SPGS    CLOUDY    41  36  81 NW3       30.20S
6HR MIN TEMP:  39; 6HR MAX TEMP:  43;

HIGHFILL       CLOUDY    41  40  96 CALM      30.18R FOG
6HR MIN TEMP:  40; 6HR MAX TEMP:  42;

SPRINGDALE     CLOUDY    41  41 100 CALM      30.20R FOG
$$

ARZ004-005-016-200100-
NORTH CENTRAL ARKANSAS

CITY           SKY/WX    TMP DP  RH WIND       PRES   REMARKS
BATESVILLE     CLOUDY    39  34  81 NE5       30.24S
6HR MIN TEMP:  39; 6HR MAX TEMP:  41;

FLIPPIN        CLOUDY    37  32  81 E3        30.21S
6HR MIN TEMP:  37; 6HR MAX TEMP:  39;

MTN HOME       CLOUDY    37  34  89 E5        30.20S
6HR MIN TEMP:  37; 6HR MAX TEMP:  38;

$$

ARZ040-041-200100-
WEST CENTRAL ARKANSAS

CITY           SKY/WX    TMP DP  RH WIND       PRES   REMARKS
MENA           CLOUDY    45  43  93 CALM      30.19R
MOUNT IDA      CLOUDY    43  41  93 CALM      30.17S
6HR MIN TEMP:  42; 6HR MAX TEMP:  43;

$$

ARZ009-017-025-026-028-200100-
NORTHEAST ARKANSAS

CITY           SKY/WX    TMP DP  RH WIND       PRES   REMARKS
CORNING        CLOUDY    37  32  81 NE6       30.25R
JONESBORO      CLOUDY    39  34  82 NE8       30.24R
6HR MIN TEMP:  39; 6HR MAX TEMP:  41;

NEWPORT        CLOUDY    40  36  86 N12       30.25R
6HR MIN TEMP:  40; 6HR MAX TEMP:  42; 6HR PCP: TRACE;

WALNUT RIDGE   CLOUDY    37  30  75 NE7       30.24R
6HR MIN TEMP:  37; 6HR MAX TEMP:  41;

BLYTHEVILLE    CLOUDY    41  34  76 NE6       30.24R
6HR MIN TEMP:  40; 6HR MAX TEMP:  43;

$$

ARZ022-023-033-042-044-200100-
CENTRAL ARKANSAS

CITY           SKY/WX    TMP DP  RH WIND       PRES   REMARKS
LITTLE ROCK    CLOUDY    43  36  76 NE7       30.23S
6HR MIN TEMP:  43; 6HR MAX TEMP:  44; 6HR PCP:  0.01;

N LITTLE ROCK  CLOUDY    40  39  93 NE8       30.23R
6HR MIN TEMP:  40; 6HR MAX TEMP:  42;

JACKSONVILLE   CLOUDY    41  36  84 NE6       30.23R
6HR MIN TEMP:  41; 6HR MAX TEMP:  42; 6HR PCP:  0.02;

SEARCY         CLOUDY    40  37  89 N6        30.25S
6HR MIN TEMP:  40; 6HR MAX TEMP:  42; 6HR PCP: TRACE;

HOT SPRINGS    CLOUDY    42  40  92 NE7       30.21R
6HR MIN TEMP:  42; 6HR MAX TEMP:  43; 6HR PCP: TRACE;

RUSSELLVILLE   CLOUDY    43  38  82 CALM      30.21R
6HR MIN TEMP:  43; 6HR MAX TEMP:  45;

CLINTON        CLOUDY    41  37  87 CALM      30.24S FOG
$$

ARZ036-200100-
EAST ARKANSAS

CITY           SKY/WX    TMP DP  RH WIND       PRES   REMARKS
WEST MEMPHIS   CLOUDY    43  37  79 NE7       30.21S
6HR MIN TEMP:  42; 6HR MAX TEMP:  44;

$$

ARZ050-053-066-070-073-200100-
SOUTHWEST ARKANSAS

CITY           SKY/WX    TMP DP  RH WIND       PRES   REMARKS
ARKADELPHIA    CLOUDY    44  44 100 NE8       30.22R
6HR MIN TEMP:  43; 6HR MAX TEMP:  45; 6HR PCP: TRACE;

CAMDEN         MOCLDY    46  39  76 MISG      30.19S
TEXARKANA      CLOUDY    45  43  93 NE8       30.19R
6HR MIN TEMP:  45; 6HR MAX TEMP:  47;

EL DORADO      CLOUDY    46  43  89 N7        30.18R
6HR MIN TEMP:  44; 6HR MAX TEMP:  46; 6HR PCP:  0.04;

DE QUEEN       CLOUDY    45  43  93 CALM      30.19R FOG
6HR MIN TEMP:  45; 6HR MAX TEMP:  46;

$$

ARZ056-057-069-200100-
SOUTHEAST ARKANSAS

CITY           SKY/WX    TMP DP  RH WIND       PRES   REMARKS
PINE BLUFF     CLOUDY    43  37  79 NE9       30.22R
6HR MIN TEMP:  43; 6HR MAX TEMP:  47;

STUTTGART      CLOUDY    43  36  75 N10       30.24R
6HR MIN TEMP:  43; 6HR MAX TEMP:  45;

MONTICELLO     CLOUDY    46  41  82 VRB3      30.20R
6HR MIN TEMP:  45; 6HR MAX TEMP:  46; 6HR PCP:  0.03;


$$





USA.gov is the U.S. government's official web portal to all federal, state and local government web resources and services.